GFSSW_sfc_dewp_159.txt.gz
Dewpoint
49 51 50 50 50 50 50 50 51 51 51 50 51 51 52 52 52 47 42 41 47 50 52 50 42 38 38 37 29 24 22 21 15 13 15 13 12 14 15 43 58 58 60 62 63
50 50 50 50 50 49 50 51 49 49 51 52 52 52 52 52 47 44 47 49 50 52 46 45 41 37 33 35 32 22 17 17 19 15 15 16 12 13 14 57 60 58 61 62 66
50 50 50 50 50 49 51 51 51 51 51 51 52 52 52 51 42 33 46 53 53 54 47 44 43 37 32 32 33 25 20 15 17 20 20 18 19 17 15 46 59 52 60 61 65
50 50 49 49 49 49 49 50 50 51 51 51 51 51 52 48 27 42 53 53 51 49 49 47 43 35 32 30 31 29 29 23 19 19 19 17 17 15 14 14 58 59 59 61 63
49 49 49 49 50 51 51 52 52 51 51 51 52 52 49 42 39 42 48 46 40 46 45 41 34 31 30 29 29 31 32 32 26 19 18 19 18 18 16 18 18 58 58 61 62
48 49 49 50 50 50 51 52 53 52 52 51 51 52 47 39 41 41 41 42 39 35 38 38 35 33 30 29 27 30 30 29 29 29 24 18 17 16 17 20 34 57 57 59 60
49 49 50 49 50 50 51 52 52 52 52 51 52 50 47 41 42 42 44 43 40 38 34 34 37 33 32 36 36 37 33 29 27 28 26 17 15 16 17 18 23 58 56 58 59
49 49 50 50 50 50 51 52 52 52 52 51 52 50 41 44 45 45 44 42 42 40 37 34 33 35 38 37 37 35 28 25 28 28 26 16 13 17 18 17 35 54 57 61 64
49 51 50 50 50 51 52 53 53 52 50 50 48 44 38 43 39 43 43 40 38 36 33 31 37 35 36 33 31 34 28 25 26 27 21 17 15 16 18 21 51 57 56 61 63
49 51 51 51 51 52 52 52 52 52 50 49 47 42 40 36 37 37 44 41 35 31 28 26 33 33 34 32 24 28 28 25 26 24 22 17 15 16 19 30 55 56 57 60 62
50 51 51 52 52 52 50 46 38 38 43 39 38 39 37 37 38 36 40 38 34 27 24 26 27 29 30 34 33 32 34 34 31 25 19 18 18 16 17 30 52 57 57 59 59
50 50 51 52 52 52 48 43 39 40 37 39 38 39 39 38 35 36 37 31 30 25 25 24 26 27 32 33 33 33 34 34 34 32 19 17 16 17 17 18 43 53 56 54 59
50 51 51 52 52 48 45 42 40 40 36 35 36 36 35 38 35 35 33 31 29 28 28 23 23 28 29 31 30 30 32 33 33 34 24 17 17 17 18 19 21 47 57 56 58
50 51 52 52 46 46 44 44 42 39 29 32 33 35 38 36 34 37 34 33 31 29 29 29 29 27 26 27 29 26 29 33 33 33 22 17 13 16 16 17 19 30 48 55 57
51 51 52 51 44 43 44 43 42 38 19 33 36 40 37 35 36 33 33 31 30 33 31 26 30 27 25 24 28 26 34 32 32 33 27 17 13 13 17 15 17 26 50 59 59
51 51 51 48 45 46 44 43 40 28 21 33 36 34 35 36 36 36 33 32 30 34 35 31 34 33 28 24 24 30 32 32 33 31 21 19 14 13 16 14 18 21 42 60 60
51 51 49 45 38 46 44 41 28 27 35 32 34 36 35 35 36 37 38 34 30 28 28 28 28 32 32 29 28 28 36 30 28 25 20 17 13 15 17 19 19 22 36 59 62
50 49 49 46 43 46 42 34 28 32 36 38 37 36 34 38 37 36 38 36 37 33 27 24 20 28 29 29 27 33 35 32 26 24 16 17 13 14 20 21 22 24 31 55 61
48 44 45 46 45 45 37 29 34 37 39 40 38 32 34 37 36 35 34 33 34 33 29 26 23 29 30 33 34 36 33 36 27 21 14 16 16 20 21 22 23 25 35 51 56
43 44 42 43 45 39 35 34 38 42 42 40 34 36 33 36 35 35 31 32 32 34 31 32 25 31 29 34 38 35 39 34 28 14 12 13 14 16 20 20 22 24 36 51 58
42 38 37 42 41 38 29 32 37 39 42 40 36 35 36 36 35 30 31 32 33 33 32 33 29 30 33 33 33 35 34 37 26 20 15 14 14 19 19 21 22 40 55 57 59
39 29 38 39 32 34 30 33 38 38 43 42 39 35 35 36 35 34 33 33 32 32 29 33 32 29 33 37 35 37 39 32 22 20 22 19 17 46 19 23 42 54 56 57 59
37 38 39 37 29 30 33 35 34 37 39 40 40 38 39 36 34 36 36 33 29 29 34 36 32 29 32 36 37 34 38 36 27 30 27 17 21 47 24 34 53 53 54 55 55
35 30 35 35 35 31 32 33 31 35 39 39 41 42 40 35 37 36 38 37 36 37 40 37 35 33 23 31 35 34 36 33 26 25 29 31 40 34 47 51 53 53 54 53 52
37 32 35 30 31 34 32 32 31 32 37 38 38 36 37 34 35 36 38 37 38 41 40 36 30 35 34 36 38 37 35 27 27 26 33 43 42 47 49 50 52 53 52 50 48
37 36 37 36 35 31 32 30 32 33 35 34 34 36 37 38 38 37 39 40 38 39 36 36 30 36 33 36 38 35 32 28 27 44 44 46 46 50 52 52 52 50 49 47 46
39 40 39 34 32 30 29 32 33 35 35 37 36 36 36 38 40 40 42 44 45 40 34 34 31 33 32 36 36 32 29 30 34 40 44 42 47 51 51 50 49 47 46 45 44

GFSSW_sfc_dewp_162.txt.gz
Dewpoint
51 50 50 50 51 51 51 51 51 51 50 49 51 51 51 52 53 47 43 42 47 50 50 49 42 38 38 37 29 26 21 20 13 10 9 13 8 13 15 18 52 54 59 63 68
50 50 50 49 50 50 51 51 50 51 51 51 51 51 51 52 48 44 47 50 50 52 48 44 39 37 33 35 33 20 18 17 19 14 11 16 14 18 23 31 59 56 62 66 69
50 50 49 49 50 51 51 51 51 51 51 51 51 51 51 51 42 35 46 52 52 51 49 44 43 37 35 33 33 26 19 16 18 20 20 18 18 19 16 18 59 56 60 65 67
49 49 49 50 50 50 50 51 52 52 52 50 51 51 52 47 27 38 53 51 50 48 49 46 42 34 31 31 31 31 27 23 20 19 19 19 19 18 16 15 22 48 61 65 65
50 50 50 50 50 50 51 51 52 52 53 52 50 51 49 42 38 42 49 47 40 45 48 44 37 33 30 29 29 29 31 32 31 31 24 19 18 18 18 20 21 20 61 62 64
49 50 51 49 50 50 51 51 52 52 52 52 51 51 47 38 41 41 41 42 41 37 43 39 35 33 31 29 28 30 33 32 28 30 29 21 20 19 20 20 20 29 57 61 63
49 50 50 50 50 50 51 51 53 53 53 52 51 50 46 41 43 43 43 43 42 39 35 34 37 33 31 34 36 37 33 31 29 28 28 23 17 18 21 19 19 24 58 60 61
50 50 50 51 51 51 52 52 52 53 52 51 51 50 42 43 45 44 44 43 44 43 40 36 33 35 38 37 35 35 31 25 27 28 28 20 13 14 18 18 19 20 55 59 62
50 51 50 51 51 52 53 52 53 51 49 49 47 42 37 43 40 40 43 39 38 39 37 35 36 35 36 30 28 32 28 26 25 28 27 21 17 16 17 17 19 21 45 59 61
51 50 50 51 51 52 53 52 52 51 49 49 47 39 38 36 37 38 44 41 36 32 29 28 33 34 33 28 22 27 29 32 26 25 28 21 20 18 19 17 20 35 55 61 62
51 50 51 51 51 51 50 44 39 38 44 39 38 39 38 38 38 37 41 38 32 27 25 27 26 28 31 31 30 33 31 32 34 35 24 25 22 18 19 20 42 56 60 61 63
50 51 51 51 52 51 46 41 39 40 37 40 40 39 40 40 36 36 37 31 29 25 25 24 23 27 31 32 32 32 32 31 33 34 33 27 20 21 18 18 53 57 60 60 62
50 51 51 52 52 47 44 44 40 41 36 35 37 37 35 38 36 36 35 31 29 27 26 23 23 26 26 29 30 29 31 31 33 35 34 27 17 18 19 19 44 58 59 60 62
50 51 52 51 46 44 44 44 41 39 29 31 34 35 36 36 34 37 36 31 31 28 28 28 28 27 26 26 30 27 29 29 31 32 30 28 15 16 17 17 40 55 57 59 61
51 51 51 50 42 42 44 44 41 37 18 33 35 40 37 36 36 36 36 33 30 31 31 24 28 28 26 26 28 26 27 29 30 32 32 28 14 15 17 17 24 54 56 58 59
51 51 51 48 44 44 44 42 38 28 20 34 35 36 37 37 36 37 37 36 31 33 34 31 34 31 28 26 27 28 28 30 32 34 31 29 16 15 15 15 19 52 55 57 58
51 50 48 45 40 46 44 39 28 27 35 32 35 38 37 35 36 37 37 36 34 30 29 28 30 32 32 27 24 26 29 22 25 29 27 25 17 15 18 18 20 40 55 55 56
50 49 48 47 44 46 39 34 27 31 34 37 38 37 33 37 37 37 35 36 37 35 31 25 21 30 31 28 27 27 29 23 18 24 22 19 16 15 19 20 22 41 58 57 57
48 45 41 42 46 43 36 29 31 36 38 38 38 33 32 35 36 36 32 32 35 35 28 27 24 29 29 29 30 33 28 34 31 29 15 16 16 20 22 21 23 40 58 60 61
42 43 38 40 44 38 33 31 33 40 40 40 35 37 34 35 35 34 31 32 33 36 32 29 24 32 31 33 36 33 33 27 33 20 14 14 15 16 20 20 24 39 56 56 57
40 37 36 40 40 36 28 29 34 37 40 40 38 34 35 35 36 33 31 32 33 33 31 30 28 29 34 32 30 34 32 35 35 25 15 14 15 21 19 20 25 38 54 56 60
38 24 37 37 30 32 27 32 37 36 40 41 40 37 34 35 35 33 33 33 33 34 31 32 31 29 31 38 35 35 33 32 31 21 20 19 17 41 22 27 42 50 56 59 60
36 36 38 36 27 28 32 33 34 33 35 39 39 38 38 35 34 36 37 36 32 31 33 35 30 28 32 36 36 34 36 34 36 32 26 17 20 35 41 49 52 55 57 58 57
33 26 33 34 34 30 29 31 30 33 35 38 38 41 37 36 37 36 36 37 30 33 39 37 32 33 24 26 34 33 33 34 35 30 27 23 35 40 48 50 53 55 56 55 54
36 32 34 30 31 33 30 32 30 31 35 36 35 37 35 35 35 35 37 37 39 38 39 36 29 34 34 37 33 33 31 31 34 34 30 35 33 38 48 51 52 53 53 52 51
35 35 36 35 34 31 29 28 30 32 33 33 33 33 34 36 37 36 39 39 36 40 37 36 29 36 34 36 36 33 35 34 34 33 38 44 44 49 51 51 51 51 51 50 50
37 38 40 33 32 29 27 30 32 33 33 36 35 34 34 36 38 40 41 42 41 40 36 34 31 33 31 35 35 33 36 34 34 44 44 40 46 50 49 50 50 50 50 49 49

GFSSW_sfc_dewp_165.txt.gz
Dewpoint
50 51 50 50 50 50 51 51 51 51 51 51 50 50 51 51 52 47 43 42 44 50 50 47 41 38 39 37 28 26 17 11 8 7 4 11 19 16 19 24 28 35 42 60 68
50 49 50 50 50 51 51 51 51 52 52 51 51 50 51 52 47 43 46 50 51 53 45 40 37 37 34 35 33 22 19 16 16 12 9 12 14 15 17 23 23 36 63 66 69
50 51 51 51 50 50 50 51 51 52 52 53 50 51 52 51 42 38 50 52 51 50 49 44 41 36 32 34 33 26 20 17 18 17 19 17 17 18 17 24 29 53 58 66 68
51 51 50 49 50 50 51 51 52 52 52 53 51 50 52 46 26 40 50 50 49 48 49 46 39 32 32 30 33 30 28 19 16 19 18 17 19 18 18 18 26 26 55 66 67
50 50 50 50 50 51 51 52 52 52 52 52 52 50 48 41 39 41 48 46 40 48 48 44 36 32 28 31 31 31 31 30 26 28 26 24 18 18 18 19 20 21 41 64 66
51 50 50 51 51 51 52 52 53 53 53 53 52 50 45 38 41 42 42 41 40 37 46 41 35 33 30 30 29 31 32 31 31 26 28 25 20 19 17 21 21 23 24 48 63
51 51 50 51 52 51 52 53 53 52 53 53 50 49 44 40 43 43 44 42 42 39 36 38 37 32 31 28 34 34 30 28 29 30 26 26 19 19 22 23 23 23 24 52 61
52 51 51 51 51 52 52 52 53 52 52 50 51 49 41 44 44 43 43 42 43 42 40 38 34 34 34 36 31 28 30 22 23 28 28 26 16 15 15 17 17 18 21 47 63
51 51 51 51 51 52 53 52 53 50 50 51 48 44 34 42 39 40 43 38 39 40 40 36 33 32 36 29 25 30 20 21 18 28 26 25 19 19 20 21 20 20 22 36 60
51 51 51 51 52 52 52 52 52 51 48 48 46 39 37 35 38 37 44 40 34 34 32 30 34 31 31 27 14 23 23 27 23 21 29 25 22 20 20 19 21 23 24 30 56
50 51 51 51 51 51 50 43 42 40 44 38 38 38 37 39 39 36 40 36 30 29 27 28 27 27 28 28 27 28 28 28 29 33 31 27 28 24 23 22 23 28 28 47 56
50 51 51 51 51 51 48 42 41 41 38 39 40 40 40 40 35 35 38 29 27 25 26 26 25 26 30 31 29 28 25 24 28 29 33 29 28 28 28 24 23 23 42 55 61
50 50 51 51 51 48 45 44 40 42 39 36 37 36 35 38 35 35 35 32 28 26 26 23 21 25 27 27 26 27 25 24 25 29 30 32 28 26 25 27 24 36 49 59 62
50 50 50 51 46 45 44 45 41 41 35 32 34 35 36 36 35 36 35 31 29 25 27 26 27 25 24 23 24 21 27 27 26 26 23 32 16 24 24 24 26 30 59 60 62
51 51 51 50 45 41 44 43 41 40 24 33 34 38 39 36 37 36 36 33 29 29 28 23 27 27 26 25 26 21 27 26 25 27 29 28 26 19 24 22 24 32 57 61 62
51 51 51 48 47 44 44 42 41 33 26 32 34 36 37 35 35 36 40 38 36 29 33 28 32 28 25 27 27 26 25 27 29 27 24 24 25 15 18 21 23 37 54 60 62
51 50 49 45 42 45 44 41 34 30 32 32 34 37 37 34 34 36 35 36 35 30 29 28 29 30 30 26 27 26 28 20 20 25 17 22 27 23 22 21 21 39 52 59 61
49 49 49 45 46 47 41 37 30 29 32 34 36 37 33 35 36 36 33 32 38 36 30 26 23 28 30 27 23 24 31 24 16 15 11 26 23 23 24 23 23 41 53 59 60
48 46 41 41 46 45 38 35 32 36 34 34 36 35 32 33 36 36 32 30 32 36 30 30 24 28 29 27 25 24 27 29 29 28 15 18 23 24 23 24 26 45 56 58 59
44 42 39 41 46 41 37 33 35 38 35 37 36 37 34 34 35 34 31 32 33 37 34 29 25 30 31 28 28 30 25 27 30 22 12 13 20 17 23 23 31 46 56 58 58
41 38 39 40 42 36 35 32 33 33 36 38 36 37 36 35 37 33 30 31 32 36 35 31 30 27 30 28 25 29 28 28 29 31 15 12 16 24 25 26 36 50 56 58 58
40 23 38 39 27 33 35 31 36 34 36 36 41 39 36 36 35 36 33 34 33 35 33 33 31 26 27 33 32 29 29 30 23 24 27 22 17 33 28 27 39 49 58 59 59
36 35 38 38 30 31 32 31 34 33 33 36 36 40 39 37 33 36 37 35 35 34 33 34 32 28 31 34 36 32 30 31 34 35 30 23 20 34 31 28 45 55 58 60 60
33 28 33 35 36 34 33 31 31 32 34 36 35 38 37 35 38 35 36 38 40 35 40 40 33 31 29 30 33 32 30 31 33 28 27 26 32 39 34 39 51 58 58 58 57
36 34 37 30 32 35 34 32 30 29 33 35 35 35 33 33 36 35 36 37 38 40 39 41 34 33 31 33 37 32 31 33 32 25 29 30 34 40 40 45 53 57 57 56 55
33 35 38 36 37 33 31 28 29 28 31 32 34 31 34 34 35 35 37 36 36 39 39 40 35 34 31 37 38 35 32 33 32 28 29 32 35 44 48 50 55 55 55 53 53
39 42 38 35 34 33 30 30 30 33 32 34 33 34 34 35 36 39 41 42 41 38 38 37 35 35 33 35 36 31 33 32 30 30 32 33 37 47 49 51 52 53 53 53 52

GFSSW_sfc_dewp_168.txt.gz
Dewpoint
52 52 52 52 52 52 51 51 52 52 53 53 52 51 51 51 53 44 39 44 41 51 53 41 36 33 39 36 31 26 19 13 9 6 5 5 13 15 21 26 29 29 30 54 67
52 52 52 51 51 51 51 51 52 52 53 53 53 50 51 52 45 40 48 49 51 54 39 34 31 30 30 34 34 24 20 16 13 10 7 5 5 5 5 13 21 28 45 60 67
52 52 51 51 51 51 52 52 52 52 53 53 53 51 51 50 41 40 53 52 54 51 44 35 35 31 23 29 32 29 22 21 18 14 10 7 7 9 9 6 10 18 29 59 64
52 51 51 51 52 52 52 52 52 53 53 53 53 52 52 45 29 44 50 49 50 45 45 38 29 25 24 21 28 30 28 23 20 16 16 13 12 11 14 11 19 36 46 61 62
52 51 51 52 52 52 52 53 52 53 53 53 53 52 48 40 36 39 46 43 42 45 42 36 29 22 21 22 22 29 29 28 21 17 19 17 15 16 13 15 24 23 39 62 64
51 51 51 51 52 52 53 53 53 53 53 53 52 50 45 36 40 40 39 39 40 39 41 36 30 28 25 21 24 24 25 28 27 23 22 19 17 14 16 18 18 21 24 44 62
52 51 51 52 52 52 53 54 53 53 52 53 50 47 42 34 40 41 40 39 38 39 37 37 35 29 27 24 23 25 28 27 28 28 24 23 19 17 16 16 20 22 23 32 45
52 52 51 52 52 52 53 53 53 52 51 50 51 47 38 40 41 40 39 39 40 38 39 38 34 32 31 29 29 24 25 20 22 24 26 25 20 19 18 18 20 19 19 25 54
51 52 51 51 52 52 52 52 53 50 50 51 48 45 30 42 37 37 40 35 36 37 40 35 32 31 30 27 21 23 15 17 16 21 23 25 22 23 21 18 19 19 19 21 46
52 51 51 51 52 52 52 52 53 51 48 46 44 41 34 32 35 36 40 36 32 34 34 31 30 30 28 25 16 15 15 16 13 14 20 21 22 23 21 21 22 21 20 21 39
51 51 51 51 51 52 50 46 43 42 42 37 36 35 34 37 37 35 36 33 30 30 26 28 25 23 24 26 24 24 23 20 18 22 21 20 21 23 24 21 21 20 23 25 31
50 50 51 51 51 52 49 42 42 42 36 38 37 37 38 38 35 34 36 29 27 24 25 25 22 23 24 26 26 24 22 21 22 23 27 23 21 25 27 25 24 22 24 27 35
50 51 51 51 51 50 45 43 43 42 37 34 35 34 35 37 36 33 34 31 27 24 25 21 19 22 22 24 24 23 22 20 19 19 28 28 26 24 25 28 27 26 25 30 41
50 51 51 51 47 44 42 45 44 44 39 31 33 35 36 38 35 36 36 32 28 26 25 23 23 23 22 21 21 18 20 21 21 19 14 23 13 22 24 25 27 27 28 36 44
49 52 52 51 45 38 44 45 43 43 29 31 33 37 37 37 34 36 36 33 30 29 27 23 23 22 21 21 22 19 19 20 21 19 20 23 23 18 21 24 25 26 26 43 48
50 51 51 47 47 43 45 45 43 36 28 29 31 33 34 36 34 34 36 37 36 33 31 28 26 25 23 22 24 24 20 21 24 20 16 20 21 14 17 22 25 23 25 50 52
50 50 48 45 41 45 45 43 36 29 25 28 31 32 34 33 33 34 34 34 33 31 29 28 27 27 27 24 24 24 21 17 16 18 15 15 18 21 19 21 24 22 24 50 54
49 49 48 39 46 47 43 32 22 21 27 29 31 33 33 33 34 34 34 32 36 36 30 26 26 28 29 27 21 23 26 21 16 14 10 18 15 18 24 23 25 21 26 50 56
48 48 41 38 47 46 35 34 27 31 30 32 33 33 31 32 36 37 33 29 28 36 31 27 23 25 25 27 23 22 24 23 26 21 11 9 21 20 22 26 25 21 31 52 57
42 43 38 39 48 43 31 29 28 30 32 34 33 35 34 34 37 33 33 30 30 35 34 29 26 25 25 27 25 23 21 25 24 15 9 7 12 14 21 25 25 23 38 55 62
43 33 36 39 43 26 32 28 28 28 34 35 32 36 35 37 37 36 36 30 32 33 35 30 29 26 29 27 22 25 26 21 20 14 11 7 9 19 22 27 27 25 44 59 61
40 24 35 38 25 28 30 26 34 30 32 34 38 36 37 36 37 37 37 34 39 36 31 33 31 26 24 26 26 25 25 23 24 18 20 23 16 13 25 25 27 32 51 59 60
34 32 36 38 34 35 27 25 31 32 31 33 33 34 36 37 35 37 37 39 38 39 36 35 34 28 27 33 34 31 26 25 26 28 25 23 16 19 22 26 26 37 57 59 59
34 24 30 35 36 36 34 25 25 27 30 33 33 35 34 35 36 36 37 39 40 40 42 40 35 31 28 31 34 32 29 25 28 26 23 25 29 29 29 29 28 53 58 59 61
32 33 37 27 30 37 36 29 23 24 27 30 32 32 33 36 37 37 37 37 39 41 41 39 36 32 30 32 34 31 27 25 27 24 23 27 30 36 39 28 33 59 59 59 58
31 32 33 33 38 35 33 31 27 28 29 27 31 32 35 35 36 36 38 37 37 39 40 41 34 35 31 34 38 34 27 23 22 23 23 26 31 34 41 40 56 57 56 57 56
38 40 38 34 33 33 34 34 33 33 30 29 30 33 35 35 37 40 43 43 40 39 39 38 38 35 32 37 37 34 32 28 26 27 25 23 27 35 45 43 56 57 57 56 56